N1HRK Weather Reports


time (UTC)temp
C
wind
direction
speed
KPH
gust
KPH
rain 1hr
cm
rain 24hr
cm
rain mn
cm
humidity
%
barometer
mb
20260503025203 10 246 0.0 0.0 0.00 0.00 0.00 90 1009.8
20260503024204 10 246 0.0 0.0 0.00 0.00 0.00 90 1010.0
20260503023204 10 246 0.0 0.0 0.00 0.00 0.00 90 1010.0
20260503022202 10 246 0.0 0.0 0.00 0.00 0.00 90 1010.1
20260503021233 10 246 0.0 0.0 0.00 0.00 0.00 90 1010.2
20260503021203 10 246 0.0 0.0 0.00 0.00 0.00 90 1010.2
20260503020203 10 246 0.0 0.0 0.00 0.00 0.00 89 1010.2
20260503015202 10 246 0.0 0.0 0.00 0.00 0.00 89 1010.2
20260503014203 10 246 0.0 0.0 0.00 0.00 0.00 89 1010.4
20260503013203 10 246 0.0 0.0 0.00 0.00 0.00 88 1010.2
20260503012203 10 246 0.0 0.0 0.00 0.00 0.00 88 1010.4
20260503011204 10 246 0.0 0.0 0.00 0.00 0.00 88 1010.4
20260503010203 10 246 0.0 0.0 0.00 0.00 0.00 88 1010.2
20260503005203 10 246 0.0 0.0 0.00 0.00 0.00 88 1010.1
20260503004203 10 246 0.0 0.0 0.00 0.00 0.00 88 1009.9
20260503003203 10 246 0.0 0.0 0.00 0.00 0.00 88 1009.9
20260503002204 10 246 0.0 0.0 0.00 0.00 0.00 87 1009.9
20260503001204 10 246 0.0 0.0 0.00 0.00 0.00 87 1010.0
20260503000233 10 246 0.0 0.0 0.00 0.00 0.00 87 1009.9
20260503000203 10 246 0.0 0.0 0.00 0.00 0.00 87 1009.9
20260502235204 10 246 0.0 0.0 0.00 0.00 0.00 86 1010.0
20260502234204 11 246 0.0 0.0 0.00 0.00 0.00 86 1010.0
20260502233203 11 246 0.0 0.0 0.00 0.00 0.00 86 1010.1
20260502232203 11 246 0.0 0.0 0.00 0.00 0.00 86 1010.1
20260502231203 11 246 0.0 0.0 0.00 0.00 0.00 85 1010.0
20260502230203 11 246 0.0 0.0 0.00 0.00 0.00 85 1010.1
20260502225204 11 246 0.0 0.0 0.00 0.00 0.00 85 1010.2
20260502224204 11 246 0.0 0.0 0.00 0.00 0.00 85 1010.2
20260502223204 11 246 0.0 0.0 0.00 0.00 0.00 85 1010.1
20260502222204 11 246 0.0 0.0 0.00 0.00 0.00 84 1010.0
20260502221205 11 246 0.0 0.0 0.00 0.00 0.00 84 1010.0
20260502220202 11 205 0.0 0.0 0.00 0.00 0.00 84 1009.9
20260502215203 11 253 1.6 3.2 0.00 0.00 0.00 84 1009.9
20260502214203 11 301 3.2 3.2 0.00 0.00 0.00 84 1009.9
20260502213204 11 231 3.2 3.2 0.00 0.00 0.00 84 1009.7
20260502212203 11 200 0.0 1.6 0.00 0.00 0.00 84 1009.7
20260502211203 11 226 1.6 4.8 0.00 0.00 0.00 84 1009.9
20260502210203 11 221 0.0 0.0 0.00 0.00 0.00 85 1009.8
20260502205204 11 246 1.6 3.2 0.00 0.00 0.00 85 1010.0
20260502204202 11 259 3.2 8.0 0.00 0.00 0.00 85 1010.1
20260502203203 11 259 3.2 4.8 0.00 0.00 0.00 85 1010.2
20260502202203 11 222 1.6 4.8 0.00 0.00 0.00 85 1010.2
20260502201204 11 221 1.6 3.2 0.00 0.00 0.00 85 1010.2
20260502200233 11 240 1.6 4.8 0.00 0.00 0.00 85 1010.3
20260502200202 11 240 1.6 4.8 0.00 0.00 0.00 85 1010.3
20260502195204 11 250 3.2 6.4 0.00 0.00 0.00 85 1010.4
20260502194203 11 217 4.8 6.4 0.00 0.00 0.00 85 1010.5
20260502193203 11 200 3.2 6.4 0.00 0.00 0.00 86 1010.7
20260502192204 11 139 3.2 6.4 0.00 0.00 0.00 86 1010.6
20260502191203 11 246 4.8 8.0 0.00 0.00 0.00 85 1011.0
20260502190203 11 202 3.2 8.0 0.00 0.00 0.00 84 1011.0
20260502185204 11 252 3.2 6.4 0.00 0.00 0.00 82 1011.1
20260502184202 11 214 3.2 4.8 0.00 0.00 0.00 82 1011.3
20260502183203 12 248 1.6 8.0 0.00 0.00 0.00 80 1011.3
20260502182204 11 218 3.2 8.0 0.00 0.00 0.00 79 1011.4
20260502181233 11 240 3.2 6.4 0.00 0.00 0.00 79 1011.2
20260502181202 11 240 3.2 6.4 0.00 0.00 0.00 79 1011.2
20260502180203 11 276 4.8 8.0 0.00 0.00 0.00 79 1011.3
20260502170203 11 236 4.8 4.8 0.00 0.00 0.00 76 1011.5
20260502164233 12 176 3.2 6.4 0.00 0.00 0.00 78 1011.6
20260502164203 11 262 3.2 4.8 0.00 0.00 0.00 78 1011.6
20260502163233 11 270 3.2 8.0 0.00 0.00 0.00 77 1011.6
20260502163202 11 235 4.8 8.0 0.00 0.00 0.00 77 1011.6
20260502162203 12 222 1.6 9.7 0.00 0.00 0.00 77 1011.5
20260502161233 12 281 4.8 11.3 0.00 0.00 0.00 76 1011.6
20260502161203 12 245 4.8 11.3 0.00 0.00 0.00 76 1011.6
20260502160233 12 243 3.2 3.2 0.00 0.00 0.00 76 1011.6
20260502160203 12 257 6.4 11.3 0.00 0.00 0.00 74 1012.0
20260502152204 12 198 3.2 4.8 0.00 0.00 0.00 76 1011.8
20260502151204 12 110 3.2 6.4 0.00 0.00 0.00 77 1011.9
20260502150202 13 191 4.8 6.4 0.00 0.00 0.00 76 1012.2
20260502130203 11 256 3.2 4.8 0.00 0.00 0.00 80 1012.6
20260502123203 11 252 3.2 3.2 0.00 0.00 0.00 82 1012.6
20260502122203 10 277 3.2 6.4 0.00 0.00 0.00 82 1012.6
20260502121203 10 229 0.0 1.6 0.00 0.00 0.00 83 1012.4
20260502120204 11 274 4.8 8.0 0.00 0.00 0.00 83 1012.4
20260502115202 10 259 3.2 4.8 0.00 0.00 0.00 84 1012.3
20260502114203 10 221 4.8 4.8 0.00 0.00 0.00 85 1012.3
20260502113203 10 210 1.6 6.4 0.00 0.00 0.00 86 1012.3
20260502112203 10 245 3.2 8.0 0.00 0.00 0.00 86 1012.4
20260502111203 9 280 3.2 6.4 0.00 0.00 0.00 86 1012.2
20260502110203 9 238 1.6 3.2 0.00 0.00 0.00 86 1012.0
20260502105203 9 245 3.2 3.2 0.00 0.00 0.00 86 1012.0
20260502104202 9 246 3.2 3.2 0.00 0.00 0.00 86 1012.1
20260502103204 8 202 0.0 4.8 0.00 0.00 0.00 86 1011.9
20260502102203 8 218 1.6 4.8 0.00 0.00 0.00 85 1011.8
20260502101202 8 259 3.2 4.8 0.00 0.00 0.00 84 1011.8
20260502100203 8 232 3.2 3.2 0.00 0.00 0.00 84 1011.6
20260502091202 7 236 6.4 6.4 0.00 0.00 0.00 82 1011.6
20260502090204 8 255 1.6 4.8 0.00 0.00 0.00 81 1011.6
20260502071233 8 249 4.8 4.8 0.00 0.00 0.00 78 1011.5
20260502071202 8 252 4.8 4.8 0.00 0.00 0.00 78 1011.5
20260502070203 8 256 3.2 8.0 0.00 0.00 0.00 78 1011.6
20260502065203 8 259 3.2 6.4 0.00 0.00 0.00 77 1011.6
20260502064234 10 246 6.4 6.4 0.00 0.00 0.00 76 1011.5
20260502064203 10 246 6.4 6.4 0.00 0.00 0.00 76 1011.5
20260502063232 10 264 1.6 4.8 0.00 0.00 0.00 75 1011.7
20260502063202 10 263 3.2 4.8 0.00 0.00 0.00 75 1011.7
20260502062203 10 260 4.8 6.4 0.00 0.00 0.00 74 1011.8
20260502061204 10 242 4.8 6.4 0.00 0.00 0.00 73 1012.0
20260502060232 10 255 4.8 6.4 0.00 0.00 0.00 73 1011.8
20260502060202 10 259 3.2 6.4 0.00 0.00 0.00 73 1011.8
20260502055204 10 249 4.8 8.0 0.00 0.00 0.00 73 1011.8
20260502054203 10 253 4.8 8.0 0.00 0.00 0.00 73 1011.9
20260502053202 10 255 1.6 9.7 0.00 0.00 0.00 74 1012.0
20260502052203 10 260 3.2 6.4 0.00 0.00 0.00 75 1012.2
20260502051203 10 253 3.2 6.4 0.00 0.00 0.00 75 1012.1
20260502050202 10 259 4.8 6.4 0.00 0.00 0.00 74 1012.0
20260502045234 10 248 6.4 6.4 0.00 0.00 0.00 73 1012.0
20260502045203 10 248 6.4 6.4 0.00 0.00 0.00 73 1012.0
20260502044203 10 267 4.8 6.4 0.00 0.00 0.00 72 1012.1
20260502043204 10 260 3.2 6.4 0.00 0.00 0.00 71 1012.1
20260502042204 10 249 4.8 6.4 0.00 0.00 0.00 70 1012.2
20260502041233 10 257 3.2 6.4 0.00 0.00 0.00 69 1012.1
20260502041202 10 257 3.2 6.4 0.00 0.00 0.00 69 1012.1
20260502040204 10 256 4.8 6.4 0.00 0.00 0.00 69 1012.1
20260502035203 10 263 3.2 6.4 0.00 0.00 0.00 69 1012.2
20260502034203 11 260 4.8 8.0 0.00 0.00 0.00 68 1012.3
20260502033204 10 285 4.8 8.0 0.00 0.00 0.00 69 1012.3
20260502032203 10 273 4.8 8.0 0.00 0.00 0.00 69 1012.2
20260502031203 11 283 4.8 11.3 0.00 0.00 0.00 69 1012.3
20260502030203 11 271 4.8 8.0 0.00 0.00 0.00 68 1012.2